Time,TemperatureF,DewpointF,PressureIn,WindDirection,WindDirectionDegrees,WindSpeedMPH,WindSpeedGustMPH,Humidity,HourlyPrecipIn,Conditions,Clouds,dailyrainin,SoftwareType,DateUTC
2013-04-27 00:00:00,50.7,45.1,30.32,NE,53,0.0,0.0,81,0.00,,,0.00,LWC V2.00 B2112,2013-04-27 04:00:00,
2013-04-27 00:01:00,50.5,44.9,30.32,NE,53,0.0,0.0,81,0.00,,,0.00,LWC V2.00 B2112,2013-04-27 04:01:00,
2013-04-27 00:06:00,50.5,44.9,30.32,NE,53,0.0,0.0,81,0.00,,,0.00,LWC V2.00 B2112,2013-04-27 04:06:00,
2013-04-27 00:11:00,50.4,44.8,30.32,NE,53,0.0,0.0,81,0.00,,,0.00,LWC V2.00 B2112,2013-04-27 04:11:00,
2013-04-27 00:16:00,50.4,45.1,30.32,NE,53,0.0,0.0,82,0.00,,,0.00,LWC V2.00 B2112,2013-04-27 04:16:00,
2013-04-27 00:21:00,50.2,44.9,30.32,NE,53,0.0,0.0,82,0.00,,,0.00,LWC V2.00 B2112,2013-04-27 04:21:00,
2013-04-27 00:26:00,50.2,44.9,30.32,NE,53,0.0,0.0,82,0.00,,,0.00,LWC V2.00 B2112,2013-04-27 04:26:00,
2013-04-27 00:31:00,50.4,45.1,30.32,NE,53,0.0,0.0,82,0.00,,,0.00,LWC V2.00 B2112,2013-04-27 04:31:00,
2013-04-27 00:33:00,50.4,44.8,30.32,NE,53,0.0,0.0,81,0.00,,,0.00,LWC V2.00 B2112,2013-04-27 04:33:00,
2013-04-27 00:38:00,50.5,44.9,30.32,NE,53,0.0,0.0,81,0.00,,,0.00,LWC V2.00 B2112,2013-04-27 04:38:00,
2013-04-27 00:43:00,50.7,45.1,30.33,NE,53,0.0,0.0,81,0.00,,,0.00,LWC V2.00 B2112,2013-04-27 04:43:00,
2013-04-27 00:48:00,51.0,45.4,30.33,NE,53,0.0,0.0,81,0.00,,,0.00,LWC V2.00 B2112,2013-04-27 04:48:00,
2013-04-27 00:53:00,51.1,45.1,30.33,NE,53,0.0,0.0,80,0.00,,,0.00,LWC V2.00 B2112,2013-04-27 04:53:00,
2013-04-27 00:58:00,51.4,45.1,30.33,NE,53,0.0,0.0,79,0.00,,,0.00,LWC V2.00 B2112,2013-04-27 04:58:00,
2013-04-27 01:03:00,51.7,45.4,30.33,NE,53,0.0,0.0,79,0.00,,,0.00,LWC V2.00 B2112,2013-04-27 05:03:00,
2013-04-27 01:08:00,52.0,45.7,30.33,NE,53,0.0,0.0,79,0.00,,,0.00,LWC V2.00 B2112,2013-04-27 05:08:00,
2013-04-27 01:13:00,52.2,45.2,30.33,NE,53,0.0,0.0,77,0.00,,,0.00,LWC V2.00 B2112,2013-04-27 05:13:00,
2013-04-27 01:18:00,52.3,45.0,30.33,NE,53,0.0,0.0,76,0.00,,,0.00,LWC V2.00 B2112,2013-04-27 05:18:00,
2013-04-27 01:23:00,52.5,45.2,30.33,NE,53,0.0,0.0,76,0.00,,,0.00,LWC V2.00 B2112,2013-04-27 05:23:00,
2013-04-27 01:28:00,52.5,45.8,30.33,NE,53,0.0,0.0,78,0.00,,,0.00,LWC V2.00 B2112,2013-04-27 05:28:00,
2013-04-27 01:33:00,52.6,46.3,30.33,NE,53,0.0,0.0,79,0.00,,,0.00,LWC V2.00 B2112,2013-04-27 05:33:00,
2013-04-27 01:38:00,52.5,46.2,30.33,NE,53,0.0,0.0,79,0.00,,,0.00,LWC V2.00 B2112,2013-04-27 05:38:00,
2013-04-27 01:43:00,52.5,46.2,30.33,NE,53,0.0,0.0,79,0.00,,,0.00,LWC V2.00 B2112,2013-04-27 05:43:00,
2013-04-27 01:48:00,52.3,46.0,30.33,NE,53,0.0,0.0,79,0.00,,,0.00,LWC V2.00 B2112,2013-04-27 05:48:00,
2013-04-27 01:53:00,52.2,45.9,30.33,NE,53,0.0,0.0,79,0.00,,,0.00,LWC V2.00 B2112,2013-04-27 05:53:00,
2013-04-27 01:58:00,52.2,45.9,30.33,NE,53,0.0,0.0,79,0.00,,,0.00,LWC V2.00 B2112,2013-04-27 05:58:00,
2013-04-27 02:03:00,52.2,46.2,30.33,NE,53,0.0,0.0,80,0.00,,,0.00,LWC V2.00 B2112,2013-04-27 06:03:00,
2013-04-27 02:08:00,52.2,46.2,30.33,NE,53,0.0,0.0,80,0.00,,,0.00,LWC V2.00 B2112,2013-04-27 06:08:00,
2013-04-27 02:13:00,52.2,46.2,30.32,NE,53,0.0,0.0,80,0.00,,,0.00,LWC V2.00 B2112,2013-04-27 06:13:00,
2013-04-27 02:18:00,52.3,46.3,30.32,NE,53,0.0,0.0,80,0.00,,,0.00,LWC V2.00 B2112,2013-04-27 06:18:00,
2013-04-27 02:23:00,52.3,46.3,30.32,NE,53,0.0,0.0,80,0.00,,,0.00,LWC V2.00 B2112,2013-04-27 06:23:00,
2013-04-27 02:28:00,52.3,46.6,30.33,NE,53,0.0,0.0,81,0.00,,,0.00,LWC V2.00 B2112,2013-04-27 06:28:00,
2013-04-27 02:33:00,52.3,46.6,30.33,NE,53,0.0,0.0,81,0.00,,,0.00,LWC V2.00 B2112,2013-04-27 06:33:00,
2013-04-27 02:38:00,52.3,46.6,30.33,NE,53,0.0,0.0,81,0.00,,,0.00,LWC V2.00 B2112,2013-04-27 06:38:00,
2013-04-27 02:43:00,52.3,46.6,30.33,NE,53,0.0,0.0,81,0.00,,,0.00,LWC V2.00 B2112,2013-04-27 06:43:00,
2013-04-27 02:48:00,52.2,46.2,30.33,NE,53,0.0,0.0,80,0.00,,,0.00,LWC V2.00 B2112,2013-04-27 06:48:00,
2013-04-27 02:53:00,52.2,46.2,30.33,NE,53,0.0,0.0,80,0.00,,,0.00,LWC V2.00 B2112,2013-04-27 06:53:00,
2013-04-27 02:58:00,52.2,46.2,30.33,NE,53,0.0,0.0,80,0.00,,,0.00,LWC V2.00 B2112,2013-04-27 06:58:00,
2013-04-27 03:03:00,52.0,46.0,30.33,NE,53,0.0,0.0,80,0.00,,,0.00,LWC V2.00 B2112,2013-04-27 07:03:00,
2013-04-27 03:08:00,52.0,46.0,30.33,NE,53,0.0,0.0,80,0.00,,,0.00,LWC V2.00 B2112,2013-04-27 07:08:00,
2013-04-27 03:13:00,52.0,46.0,30.32,NE,53,0.0,0.0,80,0.00,,,0.00,LWC V2.00 B2112,2013-04-27 07:13:00,
2013-04-27 03:18:00,52.0,46.0,30.32,NE,53,0.0,0.0,80,0.00,,,0.00,LWC V2.00 B2112,2013-04-27 07:18:00,
2013-04-27 03:23:00,52.2,45.9,30.32,NE,53,0.0,0.0,79,0.00,,,0.00,LWC V2.00 B2112,2013-04-27 07:23:00,
2013-04-27 03:28:00,52.2,45.9,30.32,NE,53,0.0,0.0,79,0.00,,,0.00,LWC V2.00 B2112,2013-04-27 07:28:00,
2013-04-27 03:33:00,52.2,46.2,30.32,NE,53,0.0,0.0,80,0.00,,,0.00,LWC V2.00 B2112,2013-04-27 07:33:00,
2013-04-27 03:38:00,52.2,45.9,30.32,NE,53,0.0,0.0,79,0.00,,,0.00,LWC V2.00 B2112,2013-04-27 07:38:00,
2013-04-27 03:43:00,52.2,45.9,30.32,NE,53,0.0,0.0,79,0.00,,,0.00,LWC V2.00 B2112,2013-04-27 07:43:00,
2013-04-27 03:48:00,52.0,45.7,30.32,NE,53,0.0,0.0,79,0.00,,,0.00,LWC V2.00 B2112,2013-04-27 07:48:00,
2013-04-27 03:53:00,52.0,45.7,30.32,NE,53,0.0,0.0,79,0.00,,,0.00,LWC V2.00 B2112,2013-04-27 07:53:00,
2013-04-27 03:58:00,52.2,46.2,30.33,NE,53,0.0,0.0,80,0.00,,,0.00,LWC V2.00 B2112,2013-04-27 07:58:00,
2013-04-27 04:03:00,52.2,46.2,30.33,NE,53,0.0,0.0,80,0.00,,,0.00,LWC V2.00 B2112,2013-04-27 08:03:00,
2013-04-27 04:08:00,52.3,46.0,30.33,NE,53,0.0,0.0,79,0.00,,,0.00,LWC V2.00 B2112,2013-04-27 08:08:00,
2013-04-27 04:13:00,52.2,45.2,30.32,NE,53,0.0,0.0,77,0.00,,,0.00,LWC V2.00 B2112,2013-04-27 08:13:00,
2013-04-27 04:18:00,52.2,45.2,30.32,NE,53,0.0,0.0,77,0.00,,,0.00,LWC V2.00 B2112,2013-04-27 08:18:00,
2013-04-27 04:23:00,52.2,45.2,30.32,NE,53,0.0,0.0,77,0.00,,,0.00,LWC V2.00 B2112,2013-04-27 08:23:00,
2013-04-27 04:28:00,52.0,45.0,30.31,NE,53,0.0,0.0,77,0.00,,,0.00,LWC V2.00 B2112,2013-04-27 08:28:00,
2013-04-27 04:33:00,52.0,45.0,30.31,NE,53,0.0,0.0,77,0.00,,,0.00,LWC V2.00 B2112,2013-04-27 08:33:00,
2013-04-27 04:38:00,52.0,45.4,30.31,NE,53,0.0,0.0,78,0.00,,,0.00,LWC V2.00 B2112,2013-04-27 08:38:00,
2013-04-27 04:43:00,51.9,45.3,30.31,NE,53,0.0,0.0,78,0.00,,,0.00,LWC V2.00 B2112,2013-04-27 08:43:00,
2013-04-27 04:48:00,51.9,45.3,30.31,NE,53,0.0,0.0,78,0.00,,,0.00,LWC V2.00 B2112,2013-04-27 08:48:00,
2013-04-27 04:53:00,51.9,45.3,30.31,NE,53,0.0,0.0,78,0.00,,,0.00,LWC V2.00 B2112,2013-04-27 08:53:00,
2013-04-27 04:58:00,51.9,44.9,30.31,NE,53,0.0,0.0,77,0.00,,,0.00,LWC V2.00 B2112,2013-04-27 08:58:00,
2013-04-27 05:03:00,51.7,44.4,30.31,NE,53,0.0,0.0,76,0.00,,,0.00,LWC V2.00 B2112,2013-04-27 09:03:00,
2013-04-27 05:08:00,51.7,44.7,30.31,NE,53,0.0,0.0,77,0.00,,,0.00,LWC V2.00 B2112,2013-04-27 09:08:00,
2013-04-27 05:13:00,51.6,44.3,30.30,NE,53,0.0,0.0,76,0.00,,,0.00,LWC V2.00 B2112,2013-04-27 09:13:00,
2013-04-27 05:18:00,51.6,43.9,30.30,NE,53,0.0,0.0,75,0.00,,,0.00,LWC V2.00 B2112,2013-04-27 09:18:00,
2013-04-27 05:23:00,51.4,44.1,30.30,NE,53,0.0,0.0,76,0.00,,,0.00,LWC V2.00 B2112,2013-04-27 09:23:00,
2013-04-27 05:28:00,51.4,44.4,30.30,NE,53,0.0,0.0,77,0.00,,,0.00,LWC V2.00 B2112,2013-04-27 09:28:00,
2013-04-27 05:33:00,51.4,44.8,30.30,NE,53,0.0,0.0,78,0.00,,,0.00,LWC V2.00 B2112,2013-04-27 09:33:00,
2013-04-27 05:38:00,51.4,44.8,30.30,NE,53,0.0,0.0,78,0.00,,,0.00,LWC V2.00 B2112,2013-04-27 09:38:00,
2013-04-27 05:43:00,51.3,45.0,30.30,NE,53,0.0,0.0,79,0.00,,,0.00,LWC V2.00 B2112,2013-04-27 09:43:00,
2013-04-27 05:48:00,51.3,45.0,30.30,NE,53,0.0,0.0,79,0.00,,,0.00,LWC V2.00 B2112,2013-04-27 09:48:00,
2013-04-27 05:53:00,51.1,44.8,30.30,NE,53,0.0,0.0,79,0.00,,,0.00,LWC V2.00 B2112,2013-04-27 09:53:00,
2013-04-27 05:58:00,51.0,44.7,30.30,NE,53,0.0,0.0,79,0.00,,,0.00,LWC V2.00 B2112,2013-04-27 09:58:00,
2013-04-27 06:03:00,50.8,44.5,30.30,NE,53,0.0,0.0,79,0.00,,,0.00,LWC V2.00 B2112,2013-04-27 10:03:00,
2013-04-27 06:08:00,50.8,44.9,30.30,NE,53,0.0,0.0,80,0.00,,,0.00,LWC V2.00 B2112,2013-04-27 10:08:00,
2013-04-27 06:13:00,50.7,44.8,30.31,NE,53,0.0,0.0,80,0.00,,,0.00,LWC V2.00 B2112,2013-04-27 10:13:00,
2013-04-27 06:18:00,50.7,44.8,30.31,NE,53,0.0,0.0,80,0.00,,,0.00,LWC V2.00 B2112,2013-04-27 10:18:00,
2013-04-27 06:23:00,50.5,44.6,30.31,NE,53,0.0,0.0,80,0.00,,,0.00,LWC V2.00 B2112,2013-04-27 10:23:00,
2013-04-27 06:28:00,50.5,44.6,30.32,NE,53,0.0,0.0,80,0.00,,,0.00,LWC V2.00 B2112,2013-04-27 10:28:00,
2013-04-27 06:33:00,50.5,44.9,30.32,NE,53,0.0,0.0,81,0.00,,,0.00,LWC V2.00 B2112,2013-04-27 10:33:00,
2013-04-27 06:38:00,50.4,44.8,30.32,NE,53,0.0,0.0,81,0.00,,,0.00,LWC V2.00 B2112,2013-04-27 10:38:00,
2013-04-27 06:43:00,50.4,44.8,30.33,NE,53,0.0,0.0,81,0.00,,,0.00,LWC V2.00 B2112,2013-04-27 10:43:00,
2013-04-27 06:48:00,50.4,45.1,30.33,NE,53,0.0,0.0,82,0.00,,,0.00,LWC V2.00 B2112,2013-04-27 10:48:00,
2013-04-27 06:53:00,50.4,45.1,30.33,NE,53,0.0,0.0,82,0.00,,,0.00,LWC V2.00 B2112,2013-04-27 10:53:00,
2013-04-27 06:58:00,50.4,45.1,30.33,NE,53,0.0,0.0,82,0.00,,,0.00,LWC V2.00 B2112,2013-04-27 10:58:00,
2013-04-27 07:03:00,50.4,45.1,30.33,NE,53,0.0,0.0,82,0.00,,,0.00,LWC V2.00 B2112,2013-04-27 11:03:00,
2013-04-27 07:08:00,50.4,45.4,30.33,NE,53,0.0,0.0,83,0.00,,,0.00,LWC V2.00 B2112,2013-04-27 11:08:00,
2013-04-27 07:13:00,50.4,45.4,30.33,NE,53,0.0,0.0,83,0.00,,,0.00,LWC V2.00 B2112,2013-04-27 11:13:00,
2013-04-27 07:18:00,50.4,45.4,30.33,NE,53,0.0,0.0,83,0.00,,,0.00,LWC V2.00 B2112,2013-04-27 11:18:00,
2013-04-27 07:23:00,50.5,45.8,30.33,NE,53,0.0,0.0,84,0.00,,,0.00,LWC V2.00 B2112,2013-04-27 11:23:00,
2013-04-27 07:28:00,50.7,46.0,30.33,NE,53,0.0,0.0,84,0.00,,,0.00,LWC V2.00 B2112,2013-04-27 11:28:00,
2013-04-27 07:33:00,50.8,46.1,30.33,NE,53,0.0,0.0,84,0.00,,,0.00,LWC V2.00 B2112,2013-04-27 11:33:00,
2013-04-27 07:38:00,50.8,46.1,30.33,NE,53,0.0,0.0,84,0.00,,,0.00,LWC V2.00 B2112,2013-04-27 11:38:00,
2013-04-27 07:43:00,51.0,46.7,30.33,NE,53,0.0,0.0,85,0.00,,,0.00,LWC V2.00 B2112,2013-04-27 11:43:00,
2013-04-27 07:48:00,51.1,46.7,30.33,NE,53,0.0,0.0,85,0.00,,,0.00,LWC V2.00 B2112,2013-04-27 11:48:00,
2013-04-27 07:53:00,51.3,46.9,30.33,NE,53,0.0,0.0,85,0.00,,,0.00,LWC V2.00 B2112,2013-04-27 11:53:00,
2013-04-27 07:58:00,51.3,46.9,30.34,NE,53,0.0,0.0,85,0.00,,,0.00,LWC V2.00 B2112,2013-04-27 11:58:00,
2013-04-27 08:03:00,51.4,47.4,30.34,NE,53,0.0,0.0,86,0.00,,,0.00,LWC V2.00 B2112,2013-04-27 12:03:00,
2013-04-27 08:08:00,51.6,47.5,30.34,NE,53,0.0,0.0,86,0.00,,,0.00,LWC V2.00 B2112,2013-04-27 12:08:00,
2013-04-27 08:13:00,51.9,47.5,30.34,NE,53,0.0,0.0,85,0.00,,,0.00,LWC V2.00 B2112,2013-04-27 12:13:00,
2013-04-27 08:18:00,52.0,47.6,30.34,NE,53,0.0,0.0,85,0.00,,,0.00,LWC V2.00 B2112,2013-04-27 12:18:00,
2013-04-27 08:23:00,52.3,47.9,30.34,NE,53,0.0,0.0,85,0.00,,,0.00,LWC V2.00 B2112,2013-04-27 12:23:00,
2013-04-27 08:28:00,52.6,48.2,30.34,NE,53,0.0,0.0,85,0.00,,,0.00,LWC V2.00 B2112,2013-04-27 12:28:00,
2013-04-27 08:33:00,53.1,48.1,30.34,NE,53,0.0,0.0,83,0.00,,,0.00,LWC V2.00 B2112,2013-04-27 12:33:00,
2013-04-27 08:38:00,53.3,47.3,30.34,NE,53,0.0,0.0,80,0.00,,,0.00,LWC V2.00 B2112,2013-04-27 12:38:00,
2013-04-27 08:43:00,53.9,48.2,30.34,NE,53,0.0,0.0,81,0.00,,,0.00,LWC V2.00 B2112,2013-04-27 12:43:00,
2013-04-27 08:48:00,54.4,48.0,30.34,NE,53,0.0,1.0,79,0.00,,,0.00,LWC V2.00 B2112,2013-04-27 12:48:00,
2013-04-27 08:53:00,54.8,47.7,30.34,NE,53,0.0,0.0,77,0.00,,,0.00,LWC V2.00 B2112,2013-04-27 12:53:00,
2013-04-27 08:58:00,55.4,48.3,30.34,NE,53,0.0,0.0,77,0.00,,,0.00,LWC V2.00 B2112,2013-04-27 12:58:00,
2013-04-27 09:03:00,55.9,48.8,30.34,NE,53,0.0,0.0,77,0.00,,,0.00,LWC V2.00 B2112,2013-04-27 13:03:00,
2013-04-27 09:08:00,56.3,48.1,30.34,NE,53,0.0,0.0,74,0.00,,,0.00,LWC V2.00 B2112,2013-04-27 13:08:00,
2013-04-27 09:13:00,56.7,48.1,30.33,NE,53,0.0,1.0,73,0.00,,,0.00,LWC V2.00 B2112,2013-04-27 13:13:00,
2013-04-27 09:18:00,57.3,48.0,30.33,NE,53,0.0,0.0,71,0.00,,,0.00,LWC V2.00 B2112,2013-04-27 13:18:00,
2013-04-27 09:23:00,58.0,48.3,30.33,NE,53,0.0,0.0,70,0.00,,,0.00,LWC V2.00 B2112,2013-04-27 13:23:00,
2013-04-27 09:28:00,58.4,49.0,30.33,NE,53,0.0,0.0,71,0.00,,,0.00,LWC V2.00 B2112,2013-04-27 13:28:00,
2013-04-27 09:33:00,59.2,48.2,30.33,NE,53,0.0,0.0,67,0.00,,,0.00,LWC V2.00 B2112,2013-04-27 13:33:00,
2013-04-27 09:38:00,59.6,48.2,30.33,NE,53,0.0,1.0,66,0.00,,,0.00,LWC V2.00 B2112,2013-04-27 13:38:00,
2013-04-27 09:44:00,60.2,45.8,30.33,NE,53,0.0,1.0,59,0.00,,,0.00,LWC V2.00 B2112,2013-04-27 13:44:00,
2013-04-27 09:49:00,61.0,47.0,30.33,NE,53,0.0,0.0,60,0.00,,,0.00,LWC V2.00 B2112,2013-04-27 13:49:00,
2013-04-27 09:54:00,61.5,45.7,30.33,NE,52,0.0,0.0,56,0.00,,,0.00,LWC V2.00 B2112,2013-04-27 13:54:00,
2013-04-27 09:59:00,62.0,46.1,30.33,NNE,28,0.0,1.0,56,0.00,,,0.00,LWC V2.00 B2112,2013-04-27 13:59:00,
2013-04-27 10:04:00,62.4,46.0,30.33,NNE,28,0.0,0.0,55,0.00,,,0.00,LWC V2.00 B2112,2013-04-27 14:04:00,
2013-04-27 10:09:00,63.2,45.8,30.33,NNE,28,0.0,0.0,53,0.00,,,0.00,LWC V2.00 B2112,2013-04-27 14:09:00,
2013-04-27 10:14:00,64.0,46.0,30.33,NNE,28,0.0,0.0,52,0.00,,,0.00,LWC V2.00 B2112,2013-04-27 14:14:00,
2013-04-27 10:19:00,64.3,44.2,30.33,NNE,28,0.0,1.0,48,0.00,,,0.00,LWC V2.00 B2112,2013-04-27 14:19:00,
2013-04-27 10:24:00,64.5,43.8,30.33,NNE,28,0.0,0.0,47,0.00,,,0.00,LWC V2.00 B2112,2013-04-27 14:24:00,
2013-04-27 10:29:00,64.7,42.9,30.33,NNE,28,0.0,1.0,45,0.00,,,0.00,LWC V2.00 B2112,2013-04-27 14:29:00,
2013-04-27 10:34:00,64.8,42.4,30.33,NNE,28,0.0,0.0,44,0.00,,,0.00,LWC V2.00 B2112,2013-04-27 14:34:00,
2013-04-27 10:39:00,65.3,42.8,30.33,NNE,12,0.0,0.0,44,0.00,,,0.00,LWC V2.00 B2112,2013-04-27 14:39:00,
2013-04-27 10:44:00,65.8,44.4,30.33,NNE,12,0.0,0.0,46,0.00,,,0.00,LWC V2.00 B2112,2013-04-27 14:44:00,
2013-04-27 10:49:00,66.3,43.1,30.33,NNE,12,0.0,0.0,43,0.00,,,0.00,LWC V2.00 B2112,2013-04-27 14:49:00,
2013-04-27 10:54:00,66.6,42.8,30.32,NNE,12,0.0,0.0,42,0.00,,,0.00,LWC V2.00 B2112,2013-04-27 14:54:00,
2013-04-27 10:59:00,66.9,42.4,30.32,NNE,12,0.0,1.0,41,0.00,,,0.00,LWC V2.00 B2112,2013-04-27 14:59:00,
2013-04-27 11:04:00,67.3,40.8,30.32,North,11,0.0,0.0,38,0.00,,,0.00,LWC V2.00 B2112,2013-04-27 15:04:00,
2013-04-27 11:09:00,67.8,41.3,30.32,North,11,0.0,0.0,38,0.00,,,0.00,LWC V2.00 B2112,2013-04-27 15:09:00,
2013-04-27 11:14:00,67.9,40.7,30.32,North,11,0.0,1.0,37,0.00,,,0.00,LWC V2.00 B2112,2013-04-27 15:14:00,
2013-04-27 11:19:00,68.1,41.5,30.32,North,0,1.0,1.0,38,0.00,,,0.00,LWC V2.00 B2112,2013-04-27 15:19:00,
2013-04-27 11:24:00,68.3,41.0,30.32,North,355,0.0,1.0,37,0.00,,,0.00,LWC V2.00 B2112,2013-04-27 15:24:00,
2013-04-27 11:29:00,68.3,42.4,30.32,North,351,0.0,1.0,39,0.00,,,0.00,LWC V2.00 B2112,2013-04-27 15:29:00,
2013-04-27 11:34:00,68.4,42.5,30.32,NNW,346,0.0,0.0,39,0.00,,,0.00,LWC V2.00 B2112,2013-04-27 15:34:00,
2013-04-27 11:39:00,68.6,42.0,30.32,NNW,346,0.0,1.0,38,0.00,,,0.00,LWC V2.00 B2112,2013-04-27 15:39:00,
2013-04-27 11:44:00,68.8,40.7,30.32,NNW,346,0.0,1.0,36,0.00,,,0.00,LWC V2.00 B2112,2013-04-27 15:44:00,
2013-04-27 11:49:00,69.1,43.8,30.32,NNW,346,0.0,1.0,40,0.00,,,0.00,LWC V2.00 B2112,2013-04-27 15:49:00,
2013-04-27 11:54:00,69.4,43.4,30.31,NNW,346,0.0,1.0,39,0.00,,,0.00,LWC V2.00 B2112,2013-04-27 15:54:00,
2013-04-27 11:59:00,69.4,40.6,30.31,NNW,346,0.0,0.0,35,0.00,,,0.00,LWC V2.00 B2112,2013-04-27 15:59:00,
2013-04-27 12:04:00,69.4,40.6,30.31,NNW,346,0.0,1.0,35,0.00,,,0.00,LWC V2.00 B2112,2013-04-27 16:04:00,
2013-04-27 12:09:00,69.8,43.7,30.31,NNW,346,0.0,1.0,39,0.00,,,0.00,LWC V2.00 B2112,2013-04-27 16:09:00,
2013-04-27 12:14:00,70.8,41.0,30.31,NNW,346,0.0,0.0,34,0.00,,,0.00,LWC V2.00 B2112,2013-04-27 16:14:00,
2013-04-27 12:19:00,71.5,42.4,30.31,NNE,24,0.0,2.0,35,0.00,,,0.00,LWC V2.00 B2112,2013-04-27 16:19:00,
2013-04-27 12:24:00,71.5,39.3,30.30,NNE,18,0.0,1.0,31,0.00,,,0.00,LWC V2.00 B2112,2013-04-27 16:24:00,
2013-04-27 12:29:00,71.5,40.1,30.30,NNE,18,0.0,1.0,32,0.00,,,0.00,LWC V2.00 B2112,2013-04-27 16:29:00,
2013-04-27 12:34:00,71.5,40.9,30.30,North,5,0.0,0.0,33,0.00,,,0.00,LWC V2.00 B2112,2013-04-27 16:34:00,
2013-04-27 12:39:00,71.5,40.1,30.29,North,5,0.0,1.0,32,0.00,,,0.00,LWC V2.00 B2112,2013-04-27 16:39:00,
2013-04-27 12:44:00,70.6,38.5,30.29,North,0,0.0,0.0,31,0.00,,,0.00,LWC V2.00 B2112,2013-04-27 16:44:00,
2013-04-27 12:49:00,72.1,38.9,30.29,ENE,76,0.0,3.0,30,0.00,,,0.00,LWC V2.00 B2112,2013-04-27 16:49:00,
2013-04-27 12:54:00,72.0,39.7,30.28,NNW,340,2.0,2.0,31,0.00,,,0.00,LWC V2.00 B2112,2013-04-27 16:54:00,
2013-04-27 12:59:00,71.6,42.5,30.28,NNW,340,0.0,0.0,35,0.00,,,0.00,LWC V2.00 B2112,2013-04-27 16:59:00,
2013-04-27 13:04:00,71.5,40.9,30.28,NNW,340,0.0,1.0,33,0.00,,,0.00,LWC V2.00 B2112,2013-04-27 17:04:00,
2013-04-27 13:09:00,71.5,39.3,30.28,NNW,340,0.0,0.0,31,0.00,,,0.00,LWC V2.00 B2112,2013-04-27 17:09:00,
2013-04-27 13:14:00,71.8,39.5,30.28,NNW,340,0.0,1.0,31,0.00,,,0.00,LWC V2.00 B2112,2013-04-27 17:14:00,
2013-04-27 13:19:00,72.0,41.3,30.28,NNW,340,0.0,0.0,33,0.00,,,0.00,LWC V2.00 B2112,2013-04-27 17:19:00,
2013-04-27 13:24:00,72.0,39.7,30.27,NNW,340,1.0,1.0,31,0.00,,,0.00,LWC V2.00 B2112,2013-04-27 17:24:00,
2013-04-27 13:29:00,71.8,41.1,30.27,NE,41,0.0,3.0,33,0.00,,,0.00,LWC V2.00 B2112,2013-04-27 17:29:00,
2013-04-27 13:34:00,71.8,39.5,30.27,NNW,344,1.0,2.0,31,0.00,,,0.00,LWC V2.00 B2112,2013-04-27 17:34:00,
2013-04-27 13:39:00,71.8,39.5,30.27,NNW,344,0.0,0.0,31,0.00,,,0.00,LWC V2.00 B2112,2013-04-27 17:39:00,
2013-04-27 13:44:00,71.6,41.7,30.27,NNW,344,1.0,1.0,34,0.00,,,0.00,LWC V2.00 B2112,2013-04-27 17:44:00,
2013-04-27 13:49:00,71.5,39.3,30.27,NNW,344,0.0,0.0,31,0.00,,,0.00,LWC V2.00 B2112,2013-04-27 17:49:00,
2013-04-27 13:54:00,71.8,40.3,30.27,NNW,344,0.0,1.0,32,0.00,,,0.00,LWC V2.00 B2112,2013-04-27 17:54:00,
2013-04-27 13:59:00,71.8,38.7,30.27,NNW,344,0.0,1.0,30,0.00,,,0.00,LWC V2.00 B2112,2013-04-27 17:59:00,
2013-04-27 14:04:00,72.0,41.3,30.27,NNW,344,0.0,1.0,33,0.00,,,0.00,LWC V2.00 B2112,2013-04-27 18:04:00,
2013-04-27 14:09:00,72.3,40.8,30.26,NNW,344,0.0,1.0,32,0.00,,,0.00,LWC V2.00 B2112,2013-04-27 18:09:00,
2013-04-27 14:14:00,72.7,39.5,30.26,NNW,343,0.0,1.0,30,0.00,,,0.00,LWC V2.00 B2112,2013-04-27 18:14:00,
2013-04-27 14:19:00,72.7,40.3,30.26,NW,323,1.0,3.0,31,0.00,,,0.00,LWC V2.00 B2112,2013-04-27 18:19:00,
2013-04-27 14:24:00,72.8,41.2,30.26,NW,323,0.0,0.0,32,0.00,,,0.00,LWC V2.00 B2112,2013-04-27 18:24:00,
2013-04-27 14:29:00,72.8,38.7,30.26,NE,53,0.0,1.0,29,0.00,,,0.00,LWC V2.00 B2112,2013-04-27 18:29:00,
2013-04-27 14:34:00,72.8,41.2,30.26,NE,53,0.0,1.0,32,0.00,,,0.00,LWC V2.00 B2112,2013-04-27 18:34:00,
2013-04-27 14:39:00,72.7,40.3,30.26,NE,53,0.0,0.0,31,0.00,,,0.00,LWC V2.00 B2112,2013-04-27 18:39:00,
2013-04-27 14:44:00,72.5,39.3,30.26,NE,53,0.0,1.0,30,0.00,,,0.00,LWC V2.00 B2112,2013-04-27 18:44:00,
2013-04-27 14:49:00,72.1,41.4,30.26,NE,53,0.0,0.0,33,0.00,,,0.00,LWC V2.00 B2112,2013-04-27 18:49:00,
2013-04-27 14:54:00,72.1,40.6,30.26,NE,53,0.0,0.0,32,0.00,,,0.00,LWC V2.00 B2112,2013-04-27 18:54:00,
2013-04-27 14:59:00,72.3,40.8,30.26,NE,53,0.0,0.0,32,0.00,,,0.00,LWC V2.00 B2112,2013-04-27 18:59:00,
2013-04-27 15:04:00,72.7,41.1,30.26,NNW,343,0.0,0.0,32,0.00,,,0.00,LWC V2.00 B2112,2013-04-27 19:04:00,
2013-04-27 15:09:00,73.9,40.5,30.26,NNW,344,0.0,1.0,30,0.00,,,0.00,LWC V2.00 B2112,2013-04-27 19:09:00,
2013-04-27 15:14:00,74.9,41.4,30.26,NNW,344,0.0,1.0,30,0.00,,,0.00,LWC V2.00 B2112,2013-04-27 19:14:00,
2013-04-27 15:19:00,74.6,40.2,30.26,NNW,344,0.0,0.0,29,0.00,,,0.00,LWC V2.00 B2112,2013-04-27 19:19:00,
2013-04-27 15:24:00,73.2,39.9,30.26,NNW,344,0.0,1.0,30,0.00,,,0.00,LWC V2.00 B2112,2013-04-27 19:24:00,
2013-04-27 15:29:00,73.0,39.7,30.26,NNW,344,0.0,1.0,30,0.00,,,0.00,LWC V2.00 B2112,2013-04-27 19:29:00,
2013-04-27 15:34:00,73.2,39.9,30.26,NNW,344,0.0,0.0,30,0.00,,,0.00,LWC V2.00 B2112,2013-04-27 19:34:00,
2013-04-27 15:39:00,73.2,42.4,30.25,NNW,344,0.0,1.0,33,0.00,,,0.00,LWC V2.00 B2112,2013-04-27 19:39:00,
2013-04-27 15:44:00,72.8,41.2,30.25,NNW,344,0.0,1.0,32,0.00,,,0.00,LWC V2.00 B2112,2013-04-27 19:44:00,
2013-04-27 15:49:00,72.7,41.1,30.25,NNW,344,0.0,0.0,32,0.00,,,0.00,LWC V2.00 B2112,2013-04-27 19:49:00,
2013-04-27 15:54:00,72.7,42.7,30.25,NNW,344,0.0,0.0,34,0.00,,,0.00,LWC V2.00 B2112,2013-04-27 19:54:00,
2013-04-27 15:59:00,72.5,44.0,30.25,NNW,344,0.0,1.0,36,0.00,,,0.00,LWC V2.00 B2112,2013-04-27 19:59:00,
2013-04-27 16:04:00,72.3,43.8,30.25,NNW,344,0.0,0.0,36,0.00,,,0.00,LWC V2.00 B2112,2013-04-27 20:04:00,
2013-04-27 16:09:00,72.1,43.7,30.25,NNW,344,1.0,1.0,36,0.00,,,0.00,LWC V2.00 B2112,2013-04-27 20:09:00,
2013-04-27 16:14:00,72.1,42.9,30.25,NNW,344,0.0,0.0,35,0.00,,,0.00,LWC V2.00 B2112,2013-04-27 20:14:00,
2013-04-27 16:19:00,72.1,42.9,30.25,NNW,344,0.0,0.0,35,0.00,,,0.00,LWC V2.00 B2112,2013-04-27 20:19:00,
2013-04-27 16:24:00,72.0,43.6,30.24,NNW,344,0.0,0.0,36,0.00,,,0.00,LWC V2.00 B2112,2013-04-27 20:24:00,
2013-04-27 16:29:00,71.8,44.8,30.24,NNW,344,0.0,0.0,38,0.00,,,0.00,LWC V2.00 B2112,2013-04-27 20:29:00,
2013-04-27 16:34:00,71.8,43.4,30.24,NNW,344,0.0,0.0,36,0.00,,,0.00,LWC V2.00 B2112,2013-04-27 20:34:00,
2013-04-27 16:39:00,71.8,42.7,30.24,NNW,344,0.0,0.0,35,0.00,,,0.00,LWC V2.00 B2112,2013-04-27 20:39:00,
2013-04-27 16:44:00,71.8,44.8,30.24,NNW,344,0.0,0.0,38,0.00,,,0.00,LWC V2.00 B2112,2013-04-27 20:44:00,
2013-04-27 16:49:00,71.6,44.6,30.24,NNW,344,0.0,0.0,38,0.00,,,0.00,LWC V2.00 B2112,2013-04-27 20:49:00,
2013-04-27 16:54:00,71.5,45.2,30.24,NNW,344,0.0,0.0,39,0.00,,,0.00,LWC V2.00 B2112,2013-04-27 20:54:00,
2013-04-27 16:59:00,71.3,43.0,30.24,NNW,344,0.0,0.0,36,0.00,,,0.00,LWC V2.00 B2112,2013-04-27 20:59:00,
2013-04-27 17:04:00,70.9,44.7,30.24,NNW,344,0.0,0.0,39,0.00,,,0.00,LWC V2.00 B2112,2013-04-27 21:04:00,
2013-04-27 17:09:00,70.9,45.4,30.24,NNW,344,0.0,0.0,40,0.00,,,0.00,LWC V2.00 B2112,2013-04-27 21:09:00,
2013-04-27 17:14:00,70.8,45.9,30.24,NNW,344,0.0,0.0,41,0.00,,,0.00,LWC V2.00 B2112,2013-04-27 21:14:00,
2013-04-27 17:19:00,70.6,46.4,30.24,NNW,344,0.0,0.0,42,0.00,,,0.00,LWC V2.00 B2112,2013-04-27 21:19:00,
2013-04-27 17:24:00,70.4,44.9,30.24,NNW,344,0.0,0.0,40,0.00,,,0.00,LWC V2.00 B2112,2013-04-27 21:24:00,
2013-04-27 17:29:00,70.4,44.2,30.24,NNW,344,0.0,0.0,39,0.00,,,0.00,LWC V2.00 B2112,2013-04-27 21:29:00,
2013-04-27 17:34:00,70.4,45.6,30.24,NNW,344,0.0,0.0,41,0.00,,,0.00,LWC V2.00 B2112,2013-04-27 21:34:00,
2013-04-27 17:39:00,70.3,44.8,30.24,NNW,344,0.0,0.0,40,0.00,,,0.00,LWC V2.00 B2112,2013-04-27 21:39:00,
2013-04-27 17:44:00,70.1,44.6,30.24,NNW,344,0.0,0.0,40,0.00,,,0.00,LWC V2.00 B2112,2013-04-27 21:44:00,
2013-04-27 17:49:00,69.9,44.5,30.24,NNW,344,0.0,0.0,40,0.00,,,0.00,LWC V2.00 B2112,2013-04-27 21:49:00,
2013-04-27 17:54:00,69.8,45.0,30.24,NNW,344,0.0,0.0,41,0.00,,,0.00,LWC V2.00 B2112,2013-04-27 21:54:00,
2013-04-27 17:59:00,69.8,45.0,30.24,NNW,344,0.0,0.0,41,0.00,,,0.00,LWC V2.00 B2112,2013-04-27 21:59:00,
2013-04-27 18:04:00,69.6,46.1,30.24,NNW,344,0.0,0.0,43,0.00,,,0.00,LWC V2.00 B2112,2013-04-27 22:04:00,
2013-04-27 18:09:00,69.6,46.1,30.23,NNW,344,0.0,0.0,43,0.00,,,0.00,LWC V2.00 B2112,2013-04-27 22:09:00,
2013-04-27 18:14:00,69.6,46.1,30.23,NNW,344,0.0,0.0,43,0.00,,,0.00,LWC V2.00 B2112,2013-04-27 22:14:00,
2013-04-27 18:19:00,69.6,44.8,30.23,NNW,344,0.0,0.0,41,0.00,,,0.00,LWC V2.00 B2112,2013-04-27 22:19:00,
2013-04-27 18:24:00,69.6,46.1,30.23,NNW,344,0.0,0.0,43,0.00,,,0.00,LWC V2.00 B2112,2013-04-27 22:24:00,
2013-04-27 18:29:00,69.6,45.5,30.23,NNW,344,0.0,0.0,42,0.00,,,0.00,LWC V2.00 B2112,2013-04-27 22:29:00,
2013-04-27 18:34:00,69.6,46.1,30.23,NNW,344,0.0,0.0,43,0.00,,,0.00,LWC V2.00 B2112,2013-04-27 22:34:00,
2013-04-27 18:39:00,69.4,45.9,30.23,NNW,344,0.0,0.0,43,0.00,,,0.00,LWC V2.00 B2112,2013-04-27 22:39:00,
2013-04-27 18:44:00,69.3,46.4,30.23,NNW,344,0.0,0.0,44,0.00,,,0.00,LWC V2.00 B2112,2013-04-27 22:44:00,
2013-04-27 18:49:00,69.1,46.3,30.23,NNW,344,0.0,0.0,44,0.00,,,0.00,LWC V2.00 B2112,2013-04-27 22:49:00,
2013-04-27 18:54:00,69.1,46.3,30.23,NNW,344,0.0,0.0,44,0.00,,,0.00,LWC V2.00 B2112,2013-04-27 22:54:00,
2013-04-27 18:59:00,68.9,45.5,30.23,NNW,344,0.0,0.0,43,0.00,,,0.00,LWC V2.00 B2112,2013-04-27 22:59:00,
2013-04-27 19:04:00,68.8,46.0,30.23,NNW,344,0.0,0.0,44,0.00,,,0.00,LWC V2.00 B2112,2013-04-27 23:04:00,
2013-04-27 19:09:00,68.6,45.8,30.23,NNW,344,0.0,0.0,44,0.00,,,0.00,LWC V2.00 B2112,2013-04-27 23:09:00,
2013-04-27 19:14:00,68.4,45.0,30.23,NNW,344,0.0,0.0,43,0.00,,,0.00,LWC V2.00 B2112,2013-04-27 23:14:00,
2013-04-27 19:19:00,68.3,45.5,30.23,NNW,344,0.0,0.0,44,0.00,,,0.00,LWC V2.00 B2112,2013-04-27 23:19:00,
2013-04-27 19:24:00,68.1,45.4,30.23,NNW,344,0.0,0.0,44,0.00,,,0.00,LWC V2.00 B2112,2013-04-27 23:24:00,
2013-04-27 19:29:00,67.9,45.8,30.23,NNW,344,0.0,0.0,45,0.00,,,0.00,LWC V2.00 B2112,2013-04-27 23:29:00,
2013-04-27 19:34:00,67.8,46.3,30.23,NNW,344,0.0,0.0,46,0.00,,,0.00,LWC V2.00 B2112,2013-04-27 23:34:00,
2013-04-27 19:39:00,67.6,47.2,30.22,NNW,344,0.0,0.0,48,0.00,,,0.00,LWC V2.00 B2112,2013-04-27 23:39:00,
2013-04-27 19:44:00,67.3,46.9,30.22,NNW,344,0.0,0.0,48,0.00,,,0.00,LWC V2.00 B2112,2013-04-27 23:44:00,
2013-04-27 19:49:00,66.9,46.6,30.22,NNW,344,0.0,0.0,48,0.00,,,0.00,LWC V2.00 B2112,2013-04-27 23:49:00,
2013-04-27 19:54:00,66.8,47.6,30.22,NNW,344,0.0,0.0,50,0.00,,,0.00,LWC V2.00 B2112,2013-04-27 23:54:00,
2013-04-27 19:59:00,66.4,47.7,30.22,NNW,344,0.0,0.0,51,0.00,,,0.00,LWC V2.00 B2112,2013-04-27 23:59:00,
2013-04-27 20:04:00,66.1,49.0,30.22,NNW,344,0.0,0.0,54,0.00,,,0.00,LWC V2.00 B2112,2013-04-28 00:04:00,
2013-04-27 20:09:00,66.0,51.3,30.22,NNW,344,0.0,0.0,59,0.00,,,0.00,LWC V2.00 B2112,2013-04-28 00:09:00,
2013-04-27 20:14:00,65.6,51.8,30.22,NNW,344,0.0,0.0,61,0.00,,,0.00,LWC V2.00 B2112,2013-04-28 00:14:00,
2013-04-27 20:19:00,65.2,50.5,30.22,NNW,344,0.0,0.0,59,0.00,,,0.00,LWC V2.00 B2112,2013-04-28 00:19:00,
2013-04-27 20:24:00,64.8,50.1,30.22,NNW,344,0.0,0.0,59,0.00,,,0.00,LWC V2.00 B2112,2013-04-28 00:24:00,
2013-04-27 20:29:00,64.5,50.7,30.22,NNW,344,0.0,0.0,61,0.00,,,0.00,LWC V2.00 B2112,2013-04-28 00:29:00,
2013-04-27 20:34:00,64.2,50.5,30.22,NNW,344,0.0,0.0,61,0.00,,,0.00,LWC V2.00 B2112,2013-04-28 00:34:00,
2013-04-27 20:39:00,63.9,50.6,30.22,NNW,344,0.0,0.0,62,0.00,,,0.00,LWC V2.00 B2112,2013-04-28 00:39:00,
2013-04-27 20:45:00,63.5,50.2,30.22,NNW,344,0.0,0.0,62,0.00,,,0.00,LWC V2.00 B2112,2013-04-28 00:45:00,
2013-04-27 20:50:00,63.4,50.6,30.22,NNW,344,0.0,0.0,63,0.00,,,0.00,LWC V2.00 B2112,2013-04-28 00:50:00,
2013-04-27 20:55:00,63.2,50.8,30.22,NNW,344,0.0,0.0,64,0.00,,,0.00,LWC V2.00 B2112,2013-04-28 00:55:00,
2013-04-27 21:00:00,62.9,50.5,30.22,NNW,344,0.0,0.0,64,0.00,,,0.00,LWC V2.00 B2112,2013-04-28 01:00:00,
2013-04-27 21:05:00,62.7,50.8,30.22,NNW,344,0.0,0.0,65,0.00,,,0.00,LWC V2.00 B2112,2013-04-28 01:05:00,
2013-04-27 21:10:00,62.4,50.9,30.23,NNW,344,0.0,0.0,66,0.00,,,0.00,LWC V2.00 B2112,2013-04-28 01:10:00,
2013-04-27 21:15:00,62.3,50.8,30.23,NNW,344,0.0,0.0,66,0.00,,,0.00,LWC V2.00 B2112,2013-04-28 01:15:00,
2013-04-27 21:20:00,62.1,51.0,30.23,NNW,344,0.0,0.0,67,0.00,,,0.00,LWC V2.00 B2112,2013-04-28 01:20:00,
2013-04-27 21:25:00,62.0,51.3,30.23,NNW,344,0.0,0.0,68,0.00,,,0.00,LWC V2.00 B2112,2013-04-28 01:25:00,
2013-04-27 21:30:00,62.0,52.1,30.23,NNW,344,0.0,0.0,70,0.00,,,0.00,LWC V2.00 B2112,2013-04-28 01:30:00,
2013-04-27 21:35:00,61.6,51.7,30.23,NNW,344,0.0,0.0,70,0.00,,,0.00,LWC V2.00 B2112,2013-04-28 01:35:00,
2013-04-27 21:40:00,61.5,51.6,30.23,NNW,344,0.0,0.0,70,0.00,,,0.00,LWC V2.00 B2112,2013-04-28 01:40:00,
2013-04-27 21:45:00,61.3,51.4,30.23,NNW,344,0.0,0.0,70,0.00,,,0.00,LWC V2.00 B2112,2013-04-28 01:45:00,
2013-04-27 21:50:00,61.2,51.3,30.23,NNW,344,0.0,0.0,70,0.00,,,0.00,LWC V2.00 B2112,2013-04-28 01:50:00,
2013-04-27 21:55:00,61.2,51.3,30.23,NNW,344,0.0,0.0,70,0.00,,,0.00,LWC V2.00 B2112,2013-04-28 01:55:00,
2013-04-27 22:00:00,61.0,51.5,30.23,NNW,344,0.0,0.0,71,0.00,,,0.00,LWC V2.00 B2112,2013-04-28 02:00:00,
2013-04-27 22:05:00,60.9,51.0,30.23,NNW,344,0.0,0.0,70,0.00,,,0.00,LWC V2.00 B2112,2013-04-28 02:05:00,
2013-04-27 22:10:00,60.9,51.4,30.23,NNW,344,0.0,0.0,71,0.00,,,0.00,LWC V2.00 B2112,2013-04-28 02:10:00,
2013-04-27 22:15:00,60.7,51.2,30.23,NNW,344,0.0,0.0,71,0.00,,,0.00,LWC V2.00 B2112,2013-04-28 02:15:00,
2013-04-27 22:20:00,60.5,51.4,30.23,NNW,344,0.0,0.0,72,0.00,,,0.00,LWC V2.00 B2112,2013-04-28 02:20:00,
2013-04-27 22:25:00,60.5,51.4,30.24,NNW,344,0.0,0.0,72,0.00,,,0.00,LWC V2.00 B2112,2013-04-28 02:25:00,
2013-04-27 22:30:00,60.4,51.3,30.24,NNW,344,0.0,0.0,72,0.00,,,0.00,LWC V2.00 B2112,2013-04-28 02:30:00,
2013-04-27 22:35:00,60.4,51.3,30.24,NNW,344,0.0,0.0,72,0.00,,,0.00,LWC V2.00 B2112,2013-04-28 02:35:00,
2013-04-27 22:40:00,60.4,51.0,30.24,NNW,344,0.0,0.0,71,0.00,,,0.00,LWC V2.00 B2112,2013-04-28 02:40:00,
2013-04-27 22:45:00,60.5,50.3,30.24,NNW,344,0.0,0.0,69,0.00,,,0.00,LWC V2.00 B2112,2013-04-28 02:45:00,
2013-04-27 22:50:00,60.7,50.1,30.24,NNW,344,0.0,0.0,68,0.00,,,0.00,LWC V2.00 B2112,2013-04-28 02:50:00,
2013-04-27 22:55:00,60.9,49.1,30.23,NNW,344,0.0,0.0,65,0.00,,,0.00,LWC V2.00 B2112,2013-04-28 02:55:00,
2013-04-27 23:00:00,61.0,47.9,30.23,NNW,344,0.0,0.0,62,0.00,,,0.00,LWC V2.00 B2112,2013-04-28 03:00:00,
2013-04-27 23:05:00,61.2,47.6,30.23,NNW,344,0.0,0.0,61,0.00,,,0.00,LWC V2.00 B2112,2013-04-28 03:05:00,
2013-04-27 23:10:00,61.3,46.8,30.23,NNW,344,0.0,0.0,59,0.00,,,0.00,LWC V2.00 B2112,2013-04-28 03:10:00,
2013-04-27 23:15:00,61.5,47.0,30.23,NNW,344,0.0,0.0,59,0.00,,,0.00,LWC V2.00 B2112,2013-04-28 03:15:00,
2013-04-27 23:20:00,61.6,46.7,30.23,NNW,344,0.0,0.0,58,0.00,,,0.00,LWC V2.00 B2112,2013-04-28 03:20:00,
2013-04-27 23:25:00,61.8,46.9,30.22,NNW,344,0.0,0.0,58,0.00,,,0.00,LWC V2.00 B2112,2013-04-28 03:25:00,
2013-04-27 23:30:00,62.0,47.0,30.22,NNW,344,0.0,0.0,58,0.00,,,0.00,LWC V2.00 B2112,2013-04-28 03:30:00,
2013-04-27 23:35:00,62.1,45.7,30.22,NNW,344,0.0,0.0,55,0.00,,,0.00,LWC V2.00 B2112,2013-04-28 03:35:00,
2013-04-27 23:40:00,62.1,45.7,30.22,NNW,344,0.0,0.0,55,0.00,,,0.00,LWC V2.00 B2112,2013-04-28 03:40:00,
2013-04-27 23:45:00,62.3,45.9,30.22,NNW,344,0.0,0.0,55,0.00,,,0.00,LWC V2.00 B2112,2013-04-28 03:45:00,
2013-04-27 23:50:00,62.4,46.0,30.22,NNW,344,0.0,0.0,55,0.00,,,0.00,LWC V2.00 B2112,2013-04-28 03:50:00,
2013-04-27 23:55:00,62.4,45.5,30.22,NNW,344,0.0,0.0,54,0.00,,,0.00,LWC V2.00 B2112,2013-04-28 03:55:00,